Location: Vibiere
(44.4333°N, 6.9833°E)
Time: 23:01:56
(UTC+00:00)

Daily predictions for brighter satellites

Satellite Brightness Start Highest point End
(mag) Time Altitude Azimuth Time Altitude Azimuth Time Altitude Azimuth
Cosmos 2227 Rocket 3.3 16:18:23 10° SW 16:23:42 41° WNW 16:29:04 10° NNE
USA 307 2.9 16:20:43 10° NW 16:24:29 48° NNE 16:28:11 10° ESE
[s.n.58449] 3.2 16:24:15 10° W 16:26:42 47° S 16:29:08 10° ESE
[s.n.58459] 3.3 16:25:20 10° W 16:27:51 47° SSW 16:30:21 10° ESE
Cosmos 44 3.5 16:22:32 10° NW 16:27:57 89° SW 16:33:05 10° SSE
[s.n.58458] 3.3 16:26:02 10° W 16:28:33 47° SSW 16:31:05 10° ESE
Cosmos 1140 Rocket 4.0 16:23:54 10° N 16:28:39 35° ENE 16:33:20 10° SE
SAR-Lupe-2 3.5 16:25:10 10° SSE 16:28:43 71° ENE 16:32:19 10° N
[s.n.58456] 3.3 16:26:51 10° W 16:29:23 47° SSW 16:31:54 10° ESE
[s.n.58447] 3.3 16:27:12 10° W 16:29:41 46° SSW 16:32:09 10° ESE
[s.n.58457] 3.3 16:27:37 10° W 16:30:08 46° SSW 16:32:40 10° ESE
[s.n.58455] 3.3 16:28:23 10° W 16:30:55 46° SSW 16:33:26 10° ESE
[s.n.58454] 3.3 16:29:09 10° W 16:31:41 46° SSW 16:34:12 10° ESE
ARGOS 4.1 16:27:09 10° S 16:32:27 55° W 16:37:47 10° NNW
[s.n.58453] 3.4 16:29:56 10° W 16:32:28 46° SSW 16:34:59 10° ESE
[s.n.58452] 3.4 16:30:39 10° W 16:33:11 45° SSW 16:35:42 10° ESE
[s.n.58451] 3.4 16:31:26 10° W 16:33:57 45° SSW 16:36:29 10° ESE
[s.n.58450] 3.4 16:32:11 10° W 16:34:44 45° SSW 16:37:15 10° ESE
Cosmos 1666 2.6 16:31:49 10° N 16:35:17 53° E 16:38:45 10° SSE
[s.n.58446] 3.4 16:34:29 10° W 16:37:01 44° SSW 16:39:32 10° ESE
[s.n.58445] 3.4 16:35:17 10° W 16:37:49 43° SSW 16:40:20 10° ESE
Cosmos 1603 4.3 16:33:22 10° N 16:38:34 35° NE 16:43:42 10° ESE
[s.n.58444] 3.5 16:36:03 10° W 16:38:35 43° SSW 16:41:07 10° ESE
[s.n.58443] 3.5 16:36:48 10° W 16:39:20 43° SSW 16:41:52 10° ESE
DMSP B5D2-2 4.1 16:34:48 10° NNE 16:40:01 72° ESE 16:45:13 10° S
[s.n.58442] 3.5 16:37:38 10° W 16:40:10 43° SSW 16:42:41 10° ESE
[s.n.58441] 3.5 16:38:27 10° W 16:40:58 42° SSW 16:43:30 10° ESE
[s.n.58440] 3.5 16:39:09 10° W 16:41:42 42° SSW 16:44:13 10° ESE
Meteor 1-31 Rocket 2.9 16:38:25 10° SE 16:41:57 46° ENE 16:45:32 10° N
[s.n.58439] 3.5 16:39:58 10° W 16:42:29 42° SSW 16:45:01 10° ESE
Cosmos 1076 Rocket 3.7 16:38:14 10° N 16:42:37 82° W 16:46:56 10° S
[s.n.58437] 3.6 16:40:43 10° W 16:43:15 41° SSW 16:45:47 10° ESE
[s.n.58438] 3.6 16:41:29 10° W 16:44:01 41° SSW 16:46:33 10° ESE
Cosmos 1544 4.2 16:44:16 10° NNW 16:47:21 41° W 16:50:25 10° SSW
USA 306 1.2 16:45:23 10° WNW 16:47:34 75° SW 16:49:38 10° SE
ATLAS CENTAUR R/B 2.7 16:47:17 10° NW 16:51:31 66° NE 16:59:49 10° ESE
SL-16 R/B 3.6 16:46:13 10° NW 16:51:34 43° WSW 16:56:52 10° S
Cosmos 1602 3.5 16:50:28 10° N 16:54:12 76° E 16:57:55 10° SSE
SL-8 R/B 3.7 16:50:47 10° WNW 16:55:34 90° SSW 17:00:22 10° ESE
USA 305 2.6 16:52:29 10° NW 16:56:19 64° NNE 17:00:06 10° ESE
RESURS DK-1 4.2 16:54:26 10° NNE 16:56:12 13° NE 16:56:12 13° NE
CZ-4B R/B 3.7 16:53:04 10° SE 16:57:51 44° ENE 17:02:32 10° N
Cosmos 1782 3.6 16:56:51 10° SSE 17:00:15 29° E 17:03:03 13° NE
Cosmos 1812 Rocket 3.7 16:56:22 10° SSE 17:00:33 50° E 17:04:48 10° NNE
Cosmos 1943 3.1 16:57:02 10° NNW 17:02:41 73° ENE 17:08:19 10° SSE
Helios 1A 3.3 16:59:23 10° NNE 17:03:21 44° E 17:07:19 10° S
ATLAS 2AS CENTAUR R/B 3.4 16:58:16 10° NNW 17:04:28 33° NE 17:09:08 15° E
SMAP 3.2 16:59:53 10° S 17:04:32 79° WSW 17:09:13 10° NNW
Helios 1B rocket 4.1 17:01:32 10° SSW 17:05:09 35° W 17:08:48 10° NNW
NOAA 6 4.4 17:00:56 10° SE 17:05:42 41° ENE 17:10:29 10° N
Cosmos 1500 4.5 17:02:29 10° NNW 17:05:49 39° W 17:09:07 10° SSW
CZ-4B R/B 3.6 17:04:24 10° S 17:07:58 81° WSW 17:11:38 10° NNW
Radarsat Rocket 4.1 17:06:42 10° SE 17:12:16 49° ENE 17:18:06 10° N
Cosmos 407 Rocket 3.4 17:08:59 10° NNW 17:14:07 61° ENE 17:19:10 10° SSE
ISS -2.0 17:16:55 10° WNW 17:19:58 33° SW 17:23:01 10° SSE
Cosmos 2251 Rocket 3.5 17:16:32 10° NNW 17:21:55 77° ENE 17:27:16 10° SSE
Cosmos 220 Rocket 4.4 17:21:36 10° N 17:25:38 37° ENE 17:27:53 21° ESE
Cosmos 2056 Rocket 4.1 17:21:22 10° SSE 17:26:17 38° ESE 17:28:45 25° NE
COSMOS 2455 4.0 17:22:29 10° SSE 17:26:47 21° ESE 17:27:03 21° ESE
Timation 2 Rocket 4.1 17:21:28 10° S 17:27:07 46° ESE 17:30:41 22° NE
Cosmos 1844 4.1 17:21:57 10° S 17:27:22 43° ESE 17:30:24 24° NE
Lacrosse 5 1.9 17:24:23 10° SSW 17:29:20 60° SE 17:31:43 30° ENE
CZ-4 R/B 4.4 17:25:23 10° SSE 17:29:23 56° ENE 17:33:23 10° N
Cosmos-2242 3.6 17:25:52 10° SSW 17:30:09 59° W 17:34:26 10° N
COSMO-SKYMED 1 2.5 17:29:30 16° NNE 17:32:51 61° E 17:37:08 10° S
Lacrosse 4 Rocket 1.9 17:30:04 10° NW 17:34:21 62° WSW 17:38:30 10° SSE
APEX 3.8 17:36:09 10° SW 17:38:57 35° WNW 17:39:58 26° NNW
Meteor 2-2 Rocket 4.3 17:34:02 10° SSW 17:39:47 83° W 17:45:42 10° N
Cosmos 1553 Rocket 4.3 17:34:25 10° N 17:40:24 42° ENE 17:46:14 10° SE
Cosmos 2221 2.7 17:36:37 10° SSE 17:40:39 44° E 17:41:02 43° ENE
Cosmos 2344 3.5 17:33:51 10° SW 17:41:32 86° NW 17:47:04 19° NE
USA 234 3.2 17:37:35 24° NE 17:41:54 89° NW 17:48:27 10° SW
Cosmos 1812 4.1 17:39:53 10° SW 17:43:19 37° WNW 17:46:47 10° N
Meteor 1-25 Rocket 4.4 17:37:51 10° NNW 17:43:30 72° W 17:49:02 10° S
Cosmos 1818 3.7 17:40:01 10° SW 17:45:26 74° NW 17:48:46 24° NNE
Cosmos 1190 Rocket 3.9 17:40:55 10° NNW 17:46:14 68° ENE 17:51:29 10° SSE
Cosmos 2026 Rocket 3.9 17:40:34 10° S 17:46:49 84° E 17:53:11 10° N
USA 276 3.8 17:46:50 10° WNW 17:48:03 20° NW 17:48:03 20° NW
Cosmos 1371 Rocket 4.0 17:45:20 10° S 17:50:29 63° ESE 17:52:32 36° NE
H-2A R/B 4.3 17:57:01 10° SSW 17:58:25 11° S 18:00:13 10° SSE
Cosmos 1844 Rocket 2.6 17:53:44 10° SSW 17:59:18 88° ESE 18:02:02 32° NNE
USA 307 4.4 17:56:28 10° WNW 17:59:50 29° SW 18:02:22 14° S
Cosmos 2263 Rocket 4.1 17:55:28 10° WSW 17:59:51 23° NW 18:04:16 10° N
Meteor 1-26 Rocket 4.1 17:54:37 10° S 18:00:07 75° E 18:04:17 19° NNE
YAOGAN 1 4.4 18:07:02 19° N 18:07:02 19° N 18:08:18 10° N
Cosmos 1092 Rocket 4.2 17:58:16 10° SSW 18:04:22 71° W 18:10:31 10° N
Cosmos 1766 Rocket 3.3 18:00:41 10° N 18:05:04 80° E 18:09:23 10° S
Cosmos 1933 4.0 18:01:53 10° SSW 18:05:47 53° W 18:07:55 24° N
Cosmos 1420 Rocket 3.9 18:01:11 10° SSW 18:06:25 90° ESE 18:08:28 39° NNE
YAOGAN 3 4.4 18:04:45 10° SSE 18:09:03 85° E 18:13:24 10° NNW
ADEOS 3.6 18:04:01 10° SSE 18:09:14 82° WSW 18:14:29 10° NNW
Cosmos 1624 Rocket 3.9 18:09:01 10° SSW 18:14:15 86° WNW 18:15:40 50° NNE
Meteor 1-5 Rocket 4.3 18:08:32 10° NNW 18:14:15 81° W 18:20:08 10° S
SL-08 R/B 3.8 18:25:44 36° NNW 18:27:18 55° WNW 18:31:49 10° SSW
RESURS DK-1 4.4 18:30:38 10° NNW 18:31:56 20° NNW 18:31:56 20° NNW
Cosmos 676 Rocket 4.2 18:34:48 10° NNW 18:40:04 70° WSW 18:40:04 70° WSW
BREEZE-M DEB 4.5 18:24:43 10° WSW 18:48:03 87° NNW 18:49:09 68° ENE
ATLAS 2AS CENTAUR R/B 2.8 18:49:07 10° NW 18:55:55 69° WSW 18:56:38 64° SSW
COSMOS 2455 3.7 19:06:07 10° SW 19:10:15 45° SW 19:10:15 45° SW
Lacrosse 5 3.6 19:07:55 10° W 19:10:56 28° WNW 19:10:56 28° WNW
USA 234 4.2 19:24:56 39° NNW 19:24:56 39° NNW 19:30:27 10° W
